[Iaude] MPEC J42: 2024 JQ [a=0.92,e=0.15,i=9.7,H=25.1]
    mpec at cfa.harvard.edu 
    mpec at cfa.harvard.edu
       
    Fri May  3 10:00:25 EDT 2024
    
    
  
M.P.E.C. 2024-J42                                   Issued 2024 May 3, 13:58 UT
     The Minor Planet Electronic Circulars contain information on unusual
         minor planets, routine data on comets and natural satellites,
         and occasional editorial announcements.  They are published
    on behalf of Division F of the International Astronomical Union by the
          Minor Planet Center, Smithsonian Astrophysical Observatory,
                          Cambridge, MA 02138, U.S.A.
			  
             Prepared using the Tamkin Foundation Computer Network
                              MPC at CFA.HARVARD.EDU
            URL https://www.minorplanetcenter.net/    ISSN 1523-6714
                                    2024 JQ                                     
Observations:
     K24J00Q 1C2024 04 16.42880 16 48 40.09 +27 37 23.5          21.2 GVEJ042G96
     K24J00Q 1C2024 04 16.43392 16 48 38.39 +27 37 18.1          20.8 GVEJ042G96
     K24J00Q* C2024 05 02.53551314 41 01.160+13 01 59.79         20.54wXEJ042F51
     K24J00Q  C2024 05 02.54766714 40 52.863+13 00 45.08         20.30wXEJ042F51
     K24J00Q  C2024 05 02.55988114 40 44.582+12 59 30.06         20.27wXEJ042F51
     K24J00Q  C2024 05 02.57215614 40 36.312+12 58 14.58         20.50wXEJ042F51
     K24J00Q KC2024 05 02.91189414 37 11.94 +12 23 03.1          19.9 GXEJ042I93
     K24J00Q KC2024 05 02.91362614 37 10.81 +12 22 52.6          20.3 GXEJ042I93
     K24J00Q KC2024 05 02.92777814 37 01.17 +12 21 27.0          20.3 GXEJ042I93
     K24J00Q KC2024 05 02.92901314 37 00.31 +12 21 19.1          20.1 GXEJ042I93
     K24J00Q KC2024 05 02.95018414 36 44.688+12 18 53.57         20.2 GXEJ042G01
     K24J00Q KC2024 05 02.95721914 36 39.955+12 18 09.72         19.6 GXEJ042G01
     K24J00Q KB2024 05 02.99100114 36 18.19 +12 15 02.6          20.1 GXEJ042958
     K24J00Q KB2024 05 02.99728114 36 13.88 +12 14 24.5          19.7 GXEJ042958
     K24J00Q KB2024 05 03.00350914 36 09.66 +12 13 47.0          19.8 GXEJ042958
     K24J00Q KC2024 05 03.05170014 35 36.240+12 08 30.52         19.4 GXEJ042G01
     K24J00Q KC2024 05 03.05867714 35 31.558+12 07 43.54         20.2 GXEJ042G01
     K24J00Q KC2024 05 03.20154014 34 08.09 +11 53 39.3          19.8 GXEJ042858
     K24J00Q KC2024 05 03.20854014 34 03.29 +11 52 56.2          20.0 GXEJ042858
     K24J00Q KC2024 05 03.21547714 33 58.56 +11 52 14.0          19.8 GXEJ042858
     K24J00Q 1C2024 05 03.35504514 32 22.628+11 37 51.53         19.95GVEJ042G96
     K24J00Q 1C2024 05 03.36018214 32 19.061+11 37 19.06         20.00GVEJ042G96
     K24J00Q 1C2024 05 03.36531614 32 15.504+11 36 46.48         20.09GVEJ042G96
     K24J00Q 1C2024 05 03.37043814 32 11.980+11 36 13.90         20.18GVEJ042G96
Observer details:
858 Tebbutt Observatory, Edgewood.  Observer F. B. Zoltowski.  0.51-m f/8.1
    Schmidt-Cassegrain + CCD.
958 Observatoire de Dax.  Observer P. Dupouy.  0.50-m f/4.5 Reflector + CMO.
F51 Pan-STARRS 1, Haleakala.  Observers J. Herman, T. Lowe, P. Minguez, A.
    Schultz, I. Smith.  Measurers K. Chambers, T. de Boer, J. Fairlamb, H.
    Gao, M. Huber, C.-C. Lin, E. Magnier, Y. Ramanjooloo, R. Wainscoat, R.
    Weryk.  1.8-m Ritchey-Chretien + CCD.
G01 Universitaetssternwarte Oldenburg.  Observers T. Hoffmann, D. Gauk.
    0.40-m f/5.8 Ritchey-Chretien + CCD.
G96 Mt. Lemmon Survey.  Observers G. J. Leonard, H. Groeller.  Measurers B.
    Gray, D. Rankin, F. C. Shelly, T. Beuden, V. F. Carvajal, D. Fay, J. B.
    Fazekas, D. C. Fuls, A. R. Gibbs, A. D. Grauer, H. Groeller, J. K. Hogan,
    R. A. Kowalski, S. M. Larson, G. J. Leonard, R. L. Seaman, K. W.
    Wierzchos.  1.5-m reflector + 10K CCD.
I93 St Pardon de Conques.  Observer F. Losse.  0.40-m f/3.7 reflector + CCD.
Orbital elements:
2024 JQ                                                  Earth MOID = 0.0483 AU
Epoch 2024 Mar. 31.0 TT = JDT 2460400.5                 MPC                     
M 137.56995              (2000.0)            P               Q                  
n   1.12052365     Peri.  355.84515     +0.69200786     -0.71025050             
a   0.9180268      Node    50.30282     +0.66706311     +0.56077151             
e   0.1543017      Incl.    9.65988     +0.27595639     +0.42553442             
P   0.88           H   25.12          G   0.15           U   7                  
Residuals in seconds of arc
240416 G96  0.2-  0.3-    240502 I93  0.3-  0.4+    240503 G01  0.9+  0.3+
240416 G96  0.2+  0.3+    240502 I93  0.6-  0.0     240503 858  0.2-  0.2+
240502 F51  0.2+  0.2+    240502 G01  0.4-  0.7+    240503 858  0.2-  0.0
240502 F51  0.2-  0.1-    240502 G01  0.1-  0.1-    240503 858  0.2+  0.3+
240502 F51  0.2-  0.0     240502 958  0.2+  0.2-    240503 G96  0.3+  0.1+
240502 F51  0.0   0.1+    240502 958  0.0   0.3+    240503 G96  0.0   0.0
240502 I93  0.3-  0.4+    240503 958  0.6+  1.0+    240503 G96  0.1-  0.1-
240502 I93  0.3+  0.4+    240503 G01 (0.9+  3.8+)   240503 G96  0.0   0.3-
Ephemeris:
2024 JQ                  a,e,i = 0.92, 0.15, 10                  q = 0.7764
Date    TT    R. A. (2000) Decl.     Delta      r    Elong.  Phase     V
2024 04 03    17 32 12.9 +29 44 01   0.1204  1.0353   103.9    69.7    23.0
...
2024 04 18    16 40 28.1 +27 03 00   0.08325 1.0517   123.0    53.2    21.8
...
2024 04 26    15 44 29.7 +21 44 34   0.06640 1.0568   138.4    39.2    20.9
...
2024 05 02    14 46 45.0 +13 55 13   0.05825 1.0590   150.6    27.8    20.3
2024 05 03    14 36 12.7 +12 15 32   0.05746 1.0592   152.1    26.5    20.2
2024 05 04    14 25 33.0 +10 30 44   0.05686 1.0593   153.1    25.5    20.2
...
2024 05 10    13 22 42.0 -00 51 32   0.05749 1.0595   149.1    29.3    20.3
...
2024 05 18    12 15 25.9 -13 59 14   0.06829 1.0575   130.9    46.3    21.2
...
2024 06 02    11 07 54.5 -27 09 28   0.1028  1.0467   105.7    68.9    22.7
A. U. Tomatic                (C) Copyright 2024 MPC           M.P.E.C. 2024-J42
    
    
More information about the Iaude
mailing list